Simultaneous Nadir Overpasses (SNOs) Predictions

Prediction of SNOs between GOES-14 and NOAA-20 Satellite Orbit:

Table of predicted SNOs for the next 14.0 days since TLE Epoch: 12/21/2024
Index Date Time (GOES-14) GOES-14 Lat,Lon NOAA-20 Lat,Lon Distance(km) Time Diff (sec)
1 12/21/2024 08:56:11 0.13,-108.42 1.08,-112.68 485.49 80
2 12/22/2024 08:34:48 0.11,-108.41 0.03,-108.17 29.00 80
3 12/24/2024 20:40:43 -0.14,-108.34 -0.27,-108.94 68.84 80
4 12/25/2024 20:19:21 -0.12,-108.33 0.78,-104.43 445.75 80
5 12/27/2024 08:43:50 0.16,-108.38 0.43,-109.70 149.96 80
6 12/28/2024 08:22:26 0.14,-108.37 -0.56,-105.17 364.22 80
7 12/29/2024 20:47:05 -0.18,-108.29 -0.64,-110.48 248.82 80
8 12/30/2024 20:25:41 -0.16,-108.28 0.36,-105.95 265.33 80
9 01/01/2025 08:50:11 0.20,-108.32 0.84,-111.22 330.76 80
10 01/02/2025 08:28:47 0.18,-108.31 -0.16,-106.70 183.16 80
11 01/03/2025 20:53:24 -0.21,-108.23 -1.08,-112.00 430.15 80
